Wind_Speed
6 6 5 6 7 6 6 8 8 9 12 13 11 11 15 19 12 5 11 11 13 9 11 9 8 6 8 9 10 10 10 10 11 12 12 13 12 13 12 11 12 14 18
6 6 7 7 9 6 5 7 9 10 11 10 8 13 17 15 9 8 9 10 12 11 11 11 8 8 8 11 13 13 12 11 12 13 14 14 14 13 14 14 12 11 14
7 9 9 8 4 2 3 5 9 12 11 9 8 11 15 12 8 8 13 13 11 12 11 13 13 12 11 12 11 11 11 11 12 12 12 13 14 14 14 14 12 10 14
9 7 7 6 2 2 3 5 8 10 7 7 9 11 10 8 8 7 10 13 13 12 14 13 14 11 9 8 9 10 11 12 12 11 12 13 13 12 11 11 10 11 11
12 5 5 5 1 1 4 6 6 6 7 8 10 9 8 8 8 5 7 11 12 13 12 13 10 10 8 9 9 10 11 12 13 13 14 15 14 13 11 10 9 10 11
14 8 4 5 4 2 4 5 6 5 7 9 10 9 7 5 7 9 4 8 10 11 11 11 10 9 9 10 10 11 13 15 17 16 15 14 13 14 12 11 10 10 11
16 13 7 7 6 4 3 5 5 5 8 8 10 11 5 5 5 5 5 7 11 11 12 14 12 10 11 11 12 14 16 17 16 17 16 16 16 15 15 13 13 11 11
16 14 12 9 7 5 4 5 3 5 5 7 10 9 6 4 7 7 8 6 11 9 10 12 12 11 12 15 16 15 15 16 16 15 14 14 15 17 17 16 16 15 14
16 14 12 11 9 6 5 4 5 3 5 7 10 8 6 5 7 9 8 10 12 11 12 13 13 13 16 14 14 14 14 15 15 17 18 18 18 18 18 18 17 16 14
16 15 12 12 10 8 5 5 6 7 7 9 11 8 6 6 6 8 9 9 9 12 14 14 14 16 16 14 13 14 14 14 15 15 17 18 18 17 18 17 17 16 14
17 16 14 12 11 9 7 6 6 7 8 11 11 9 7 5 6 8 8 10 9 11 13 14 14 16 13 14 14 13 15 14 14 15 16 16 16 18 17 16 16 15 16
19 20 20 16 13 10 8 7 6 5 7 9 10 7 5 4 5 6 7 8 10 11 10 14 16 13 14 14 14 14 14 13 14 16 17 18 18 17 17 18 18 18 17
18 18 21 19 15 11 8 6 6 6 9 9 7 4 3 4 4 5 6 6 8 10 10 12 14 14 13 13 12 12 12 15 17 18 18 18 18 18 18 18 18 18 17
12 10 15 19 15 11 8 7 8 7 10 7 6 3 3 4 4 6 7 7 7 7 10 11 12 12 12 12 13 14 15 16 17 17 17 18 18 17 18 19 19 20 18
11 14 16 16 13 12 8 8 7 9 10 6 4 2 3 5 5 5 5 6 7 7 8 9 10 10 9 10 11 12 14 15 15 16 16 17 17 19 19 18 19 18 18
15 16 18 15 13 11 9 8 9 10 9 6 3 3 3 3 4 6 5 5 7 7 7 6 7 8 9 10 11 12 13 15 15 15 15 16 18 19 19 19 18 18 19
18 16 19 16 12 11 10 10 9 10 8 6 3 3 3 3 4 6 7 7 5 4 4 5 5 7 9 10 11 12 12 13 15 15 14 14 15 16 17 18 18 18 20
18 17 19 15 14 13 11 11 10 9 7 5 3 2 2 2 3 5 5 5 4 5 6 6 6 7 8 9 10 10 12 13 14 13 13 12 15 16 17 19 20 20 19
17 16 21 18 14 12 11 12 10 7 7 4 3 2 0 1 2 3 3 4 4 6 6 5 6 7 7 8 9 10 10 12 12 12 13 14 16 18 19 21 23 23 22
16 18 18 17 15 13 13 11 9 8 7 5 3 2 1 0 0 1 3 3 4 4 4 6 7 7 6 6 7 8 9 10 10 11 11 13 15 17 20 22 23 21 21
14 16 17 18 15 9 11 11 10 8 7 5 4 3 2 2 2 2 3 3 4 6 6 6 5 6 6 5 5 6 8 10 10 9 11 12 14 17 20 21 22 22 22
16 16 17 15 11 10 13 12 10 8 7 6 5 5 4 3 2 3 4 4 4 4 6 8 8 7 7 7 6 6 8 9 10 11 10 11 14 16 17 20 21 22 21
14 12 11 10 10 13 13 11 9 8 8 7 7 7 6 6 4 4 5 7 9 10 10 10 11 11 9 8 8 8 8 9 10 10 12 13 13 15 17 19 20 20 20
7 8 10 12 12 14 12 11 10 10 9 10 10 9 9 7 7 5 7 9 9 9 10 12 14 14 12 10 10 11 11 12 13 14 14 15 16 16 18 19 20 20 21
11 12 15 15 14 14 13 12 12 11 12 12 11 12 11 8 6 7 8 9 9 10 12 14 16 15 12 11 12 13 14 14 14 14 15 17 18 18 20 22 22 23 23
10 12 13 15 14 15 13 14 14 15 15 14 14 15 12 8 6 8 7 7 8 9 13 17 16 15 13 13 14 15 16 17 16 18 18 18 18 19 22 23 24 25 26
Wind_Direction
229 231 221 247 286 323 18 7 349 351 4 4 3 352 352 358 21 37 24 15 17 9 356 9 11 9 10 14 12 24 26 26 29 23 21 19 14 9 359 345 327 320 331
242 250 253 256 297 310 344 358 6 11 12 1 3 16 23 27 35 36 31 15 18 21 26 20 40 50 41 32 42 48 51 44 32 24 18 15 17 16 13 11 15 9 356
247 269 258 269 297 60 19 10 4 16 9 2 357 26 24 25 22 19 27 25 36 37 49 44 52 51 48 44 43 37 26 15 10 7 6 7 6 5 6 13 20 11 358
245 255 254 254 288 309 355 353 5 5 18 2 7 16 17 24 11 26 41 33 34 43 42 40 54 58 58 45 22 11 3 357 354 351 347 346 349 352 355 0 359 357 1
237 260 254 252 283 30 1 335 340 354 360 355 3 12 10 5 7 15 30 26 38 31 35 31 34 31 22 12 5 355 352 345 338 335 333 333 333 330 334 341 345 347 353
236 241 242 246 242 310 318 311 332 346 337 346 357 355 349 347 332 340 327 18 22 16 17 8 12 9 352 346 342 342 341 339 335 330 332 334 335 342 331 326 331 341 347
235 237 233 235 242 258 282 294 328 330 329 347 354 5 9 351 356 356 337 342 359 5 13 13 6 356 349 343 334 331 332 333 340 348 352 359 356 349 354 349 336 329 330
238 236 239 224 231 241 260 290 300 319 334 343 345 1 4 341 339 332 331 317 345 352 357 355 355 345 335 340 343 336 336 347 359 4 7 4 4 4 2 3 357 357 353
221 229 228 214 221 227 248 268 277 304 340 334 335 343 352 330 324 327 337 329 330 344 339 332 338 349 354 4 10 7 8 10 7 4 5 6 10 10 7 9 5 0 358
228 234 229 211 218 221 246 259 269 288 310 332 328 330 338 324 318 321 326 323 310 316 328 344 1 11 17 20 18 19 18 16 11 7 5 4 5 3 5 2 2 356 352
237 241 237 220 221 225 244 259 265 301 303 320 323 326 327 328 322 315 315 309 316 317 339 6 13 21 17 19 19 18 20 18 10 9 5 2 2 5 5 2 1 359 352
242 242 238 228 220 236 243 255 271 295 307 321 320 321 336 341 324 310 306 312 318 331 349 14 26 24 16 17 12 17 15 6 7 9 5 3 3 6 5 8 7 5 2
244 242 227 215 216 237 239 249 268 298 314 319 307 315 345 329 327 326 316 314 320 338 355 11 22 21 15 8 7 10 8 7 9 6 5 3 5 4 9 13 9 5 3
231 210 194 203 218 227 232 243 255 291 304 310 293 305 322 303 313 327 324 328 336 345 357 13 23 16 11 2 357 0 3 6 9 6 2 2 6 5 10 11 12 10 5
205 189 192 201 222 218 231 239 263 287 299 295 269 280 291 299 316 309 319 329 334 352 9 23 17 3 3 357 360 353 2 6 5 4 2 6 5 4 6 8 10 3 357
204 194 200 208 212 217 233 245 256 288 285 264 238 230 265 283 303 309 320 338 351 4 15 20 11 351 357 358 358 358 4 3 359 3 4 5 2 3 2 3 2 357 352
212 208 208 209 213 223 239 252 263 275 261 248 217 247 278 293 305 324 335 358 8 26 27 14 7 357 359 360 347 357 356 359 360 2 3 3 360 1 1 358 357 357 352
219 214 209 218 225 230 242 248 260 256 248 237 232 237 265 322 335 328 338 2 6 14 17 8 10 5 1 344 346 350 354 353 359 358 1 358 358 0 359 355 353 358 359
210 196 194 227 227 230 244 255 253 241 235 226 227 239 333 8 344 328 3 6 4 18 15 1 357 359 353 339 347 351 351 352 352 354 358 353 354 353 356 352 349 354 357
203 205 203 218 219 223 250 248 236 225 223 212 214 213 119 126 186 35 42 21 19 4 348 346 345 353 339 347 347 345 350 354 350 354 351 354 351 349 349 350 344 347 352
191 196 200 207 204 242 246 232 219 212 210 205 200 178 147 164 132 83 57 20 354 348 351 338 343 344 342 334 355 353 356 352 347 353 356 349 351 350 347 342 341 345 347
195 208 208 205 205 234 233 220 207 202 204 201 185 168 156 144 96 66 40 19 348 341 337 349 351 343 338 343 357 4 357 351 350 354 356 350 353 346 338 337 340 341 345
170 188 183 213 211 220 218 210 198 202 205 190 176 163 159 144 114 61 30 16 5 357 353 355 348 346 349 349 356 358 356 353 349 354 356 351 349 341 339 337 339 340 338
189 203 219 213 222 214 207 199 192 205 199 183 177 164 160 137 85 52 30 26 8 2 7 8 2 355 355 356 351 345 351 354 352 352 349 347 346 342 340 340 339 340 341
219 213 207 206 212 205 200 195 196 202 194 182 177 169 161 118 73 44 38 28 16 15 19 20 13 6 1 350 342 344 349 352 343 341 344 344 342 339 343 342 340 339 343
221 220 215 213 204 204 194 201 200 198 190 184 181 175 161 114 80 58 46 21 24 17 26 24 24 17 6 357 352 351 350 345 340 339 341 340 341 342 341 340 338 338 344
Height
3229 3229 3230 3230 3230 3230 3229 3228 3226 3225 3224 3222 3221 3219 3217 3215 3212 3211 3211 3209 3207 3206 3204 3202 3199 3198 3197 3196 3194 3192 3192 3192 3190 3189 3187 3186 3184 3183 3182 3180 3178 3178 3177
3229 3229 3230 3230 3230 3232 3230 3228 3226 3225 3224 3223 3221 3220 3218 3216 3215 3214 3213 3211 3209 3207 3205 3203 3201 3199 3197 3197 3196 3195 3194 3193 3191 3190 3188 3187 3185 3184 3182 3180 3179 3178 3176
3228 3229 3229 3230 3231 3231 3229 3228 3227 3226 3224 3223 3222 3220 3220 3218 3217 3215 3214 3212 3211 3209 3207 3205 3202 3201 3200 3199 3198 3197 3196 3194 3192 3190 3189 3187 3185 3183 3182 3180 3178 3177 3175
3228 3228 3229 3229 3230 3230 3229 3228 3227 3227 3225 3225 3223 3222 3221 3220 3218 3217 3216 3214 3212 3210 3209 3206 3204 3203 3202 3200 3199 3197 3196 3194 3193 3191 3190 3187 3185 3183 3181 3180 3179 3177 3174
3226 3227 3228 3229 3229 3229 3229 3228 3227 3226 3226 3225 3224 3223 3222 3221 3220 3218 3217 3216 3214 3212 3209 3208 3207 3205 3203 3202 3200 3198 3196 3194 3192 3190 3188 3187 3185 3182 3180 3179 3178 3176 3174
3224 3225 3227 3227 3228 3228 3228 3227 3227 3226 3225 3225 3224 3223 3222 3221 3220 3219 3218 3217 3215 3212 3211 3209 3207 3205 3203 3201 3199 3198 3196 3194 3190 3188 3186 3185 3184 3181 3179 3177 3176 3175 3173
3222 3223 3225 3226 3227 3228 3227 3227 3227 3226 3225 3224 3224 3223 3222 3221 3221 3220 3219 3217 3215 3213 3211 3209 3207 3205 3203 3201 3199 3196 3195 3192 3189 3188 3185 3183 3181 3180 3179 3177 3175 3173 3171
3219 3220 3223 3224 3225 3226 3226 3226 3226 3225 3224 3224 3224 3223 3223 3223 3221 3220 3218 3217 3215 3213 3211 3209 3207 3205 3203 3201 3198 3195 3193 3191 3189 3186 3184 3182 3181 3180 3178 3176 3174 3172 3170
3216 3218 3220 3222 3223 3224 3225 3225 3225 3224 3224 3224 3224 3223 3222 3222 3221 3219 3218 3217 3215 3213 3212 3209 3207 3206 3203 3200 3197 3195 3194 3192 3189 3187 3185 3183 3181 3179 3178 3177 3175 3173 3170
3214 3216 3219 3220 3221 3222 3224 3224 3224 3224 3224 3223 3223 3221 3221 3221 3220 3220 3219 3218 3216 3214 3212 3210 3207 3205 3203 3201 3199 3197 3195 3193 3190 3188 3186 3184 3181 3179 3177 3176 3173 3171 3169
3211 3213 3216 3218 3219 3221 3222 3223 3223 3223 3223 3222 3222 3220 3219 3219 3219 3219 3219 3218 3215 3213 3212 3210 3208 3206 3205 3202 3199 3197 3195 3193 3191 3189 3187 3184 3181 3179 3175 3173 3171 3170 3168
3208 3210 3212 3216 3217 3219 3221 3221 3222 3223 3222 3221 3221 3219 3218 3218 3218 3218 3218 3217 3215 3213 3212 3211 3208 3207 3205 3203 3200 3198 3197 3194 3192 3189 3186 3184 3181 3178 3176 3174 3172 3170 3168
3203 3204 3208 3213 3215 3217 3219 3219 3221 3221 3221 3219 3219 3218 3217 3217 3218 3218 3217 3216 3214 3212 3211 3210 3209 3208 3205 3203 3201 3199 3196 3194 3192 3189 3186 3184 3181 3180 3177 3174 3172 3170 3168
3200 3202 3206 3208 3213 3215 3217 3218 3218 3219 3219 3218 3218 3217 3216 3216 3217 3216 3216 3214 3212 3211 3210 3210 3209 3207 3205 3204 3201 3198 3197 3195 3192 3189 3187 3185 3183 3180 3177 3174 3172 3170 3168
3199 3202 3206 3209 3211 3213 3214 3216 3217 3217 3217 3217 3217 3216 3215 3215 3216 3215 3214 3213 3210 3209 3209 3209 3208 3206 3205 3204 3202 3199 3198 3195 3193 3191 3188 3186 3183 3181 3179 3175 3172 3170 3168
3197 3200 3204 3207 3210 3211 3212 3213 3215 3215 3215 3216 3215 3215 3215 3215 3214 3214 3213 3211 3210 3208 3208 3208 3207 3205 3205 3204 3202 3200 3197 3196 3194 3192 3189 3187 3185 3183 3180 3178 3174 3172 3168
3195 3198 3201 3205 3206 3209 3210 3212 3213 3213 3213 3214 3214 3214 3214 3213 3213 3213 3212 3210 3209 3208 3208 3208 3207 3206 3205 3204 3201 3199 3197 3195 3194 3192 3190 3188 3186 3183 3181 3178 3176 3172 3168
3193 3196 3199 3203 3204 3207 3209 3210 3211 3210 3212 3212 3212 3213 3213 3213 3212 3212 3210 3208 3207 3207 3207 3207 3206 3206 3204 3202 3201 3199 3197 3195 3193 3191 3189 3187 3185 3183 3181 3178 3174 3171 3168
3190 3194 3196 3200 3202 3205 3207 3208 3208 3209 3210 3211 3211 3211 3212 3211 3211 3211 3209 3208 3207 3206 3205 3204 3204 3204 3203 3201 3200 3199 3196 3195 3193 3191 3188 3185 3183 3181 3178 3175 3174 3171 3166
3187 3190 3194 3197 3200 3202 3204 3205 3206 3208 3209 3209 3210 3211 3210 3210 3210 3209 3208 3207 3206 3204 3203 3203 3203 3203 3202 3200 3198 3197 3196 3194 3192 3190 3187 3185 3183 3180 3178 3176 3174 3169 3164
3185 3188 3191 3194 3197 3200 3202 3203 3205 3206 3207 3207 3209 3209 3208 3208 3208 3207 3206 3205 3204 3203 3203 3201 3200 3200 3201 3200 3197 3196 3194 3192 3190 3188 3187 3185 3183 3181 3178 3175 3171 3167 3163
3183 3187 3190 3193 3195 3198 3199 3202 3203 3204 3206 3206 3207 3207 3207 3208 3208 3207 3206 3204 3202 3202 3201 3200 3199 3198 3198 3198 3196 3194 3192 3192 3190 3188 3187 3185 3182 3179 3177 3173 3169 3165 3161
3182 3184 3188 3190 3192 3195 3197 3199 3201 3203 3205 3206 3205 3206 3207 3208 3207 3206 3204 3203 3204 3203 3201 3200 3198 3197 3195 3195 3194 3192 3191 3190 3189 3186 3184 3182 3181 3179 3175 3171 3168 3164 3160
3182 3183 3185 3188 3191 3193 3195 3197 3199 3202 3204 3203 3203 3205 3207 3207 3206 3206 3205 3204 3203 3202 3200 3198 3196 3195 3193 3191 3189 3188 3187 3185 3184 3182 3180 3179 3178 3174 3171 3168 3165 3161 3157
3181 3183 3185 3187 3188 3190 3193 3196 3198 3200 3202 3201 3202 3205 3207 3206 3207 3206 3204 3203 3203 3201 3199 3198 3197 3195 3193 3190 3188 3187 3186 3184 3182 3180 3178 3176 3173 3170 3168 3164 3160 3156 3151
3179 3181 3183 3185 3186 3189 3191 3194 3196 3197 3198 3199 3202 3205 3205 3206 3207 3207 3205 3204 3202 3202 3200 3199 3198 3196 3193 3191 3189 3187 3186 3183 3180 3178 3176 3174 3170 3168 3163 3160 3157 3153 3148